When you browse on this site, cookies collect data to enhance your experience and personalize the content and advertising you see.
Visit our Privacy Policy to learn more. By continuing to use the site, you agree to this use of cookies and data.
  • In Denmark
  • List of Countries
  • For 7 days
  • Water Temperature
  • Satellite Maps
  • Weather Map
  • Weather Widgets
  • user-avatar
    Login

    Hourly Weather Knighton

    Today, 17 February, Sunday

    Time Temperature Precipitation Wind Pressure Humidity
    00:00 +6°C° 0 mm 7 mps 731 mmHg 93%
    01:00 +6°C° 0 mm 7 mps 731 mmHg 93%
    02:00 +5°C° 0 mm 7 mps 730 mmHg 92%
    03:00 +5°C° 0 mm 7 mps 729 mmHg 91%
    04:00 +4°C° 0 mm 7 mps 729 mmHg 90%
    05:00 +4°C° 0 mm 7 mps 729 mmHg 89%
    06:00 +4°C° 0 mm 6 mps 728 mmHg 88%
    07:00 +4°C° 0 mm 6 mps 728 mmHg 88%
    08:00 +4°C° 0 mm 6 mps 728 mmHg 89%
    09:00 +5°C° 0 mm 6 mps 728 mmHg 89%
    10:00 +6°C° 0.1 mm 7 mps 728 mmHg 87%
    11:00 +7°C° 0.1 mm 8 mps 728 mmHg 85%
    12:00 +9°C° 0.1 mm 8 mps 728 mmHg 83%
    13:00 +9°C° 0.2 mm 7 mps 728 mmHg 84%
    14:00 +8°C° 0.2 mm 6 mps 728 mmHg 84%
    15:00 +7°C° 0.2 mm 5 mps 728 mmHg 84%
    16:00 +6°C° 0 mm 5 mps 728 mmHg 86%
    17:00 +6°C° 0 mm 5 mps 728 mmHg 88%
    18:00 +5°C° 0 mm 4 mps 728 mmHg 89%
    19:00 +4°C° 0 mm 4 mps 728 mmHg 91%
    20:00 +4°C° 0 mm 4 mps 728 mmHg 92%
    21:00 +4°C° 0 mm 4 mps 728 mmHg 93%
    22:00 +3°C° 0 mm 5 mps 728 mmHg 93%
    23:00 +3°C° 0 mm 5 mps 728 mmHg 92%

    Tomorrow, 18 February, Monday

    Time Temperature Precipitation Wind Pressure Humidity
    00:00 +3°C° 0 mm 5 mps 728 mmHg 91%
    01:00 +3°C° 0 mm 5 mps 728 mmHg 92%
    02:00 +3°C° 0 mm 5 mps 728 mmHg 93%
    03:00 +3°C° 0 mm 5 mps 728 mmHg 93%
    04:00 +2°C° 0 mm 5 mps 728 mmHg 93%
    05:00 +2°C° 0 mm 5 mps 728 mmHg 93%
    06:00 +3°C° 0 mm 4 mps 728 mmHg 93%
    07:00 +3°C° 0 mm 5 mps 728 mmHg 91%
    08:00 +3°C° 0 mm 5 mps 728 mmHg 89%
    09:00 +4°C° 0 mm 6 mps 728 mmHg 87%
    10:00 +4°C° 0 mm 6 mps 729 mmHg 82%
    11:00 +5°C° 0 mm 6 mps 729 mmHg 77%
    12:00 +7°C° 0 mm 6 mps 729 mmHg 72%
    13:00 +7°C° 0 mm 6 mps 729 mmHg 70%
    14:00 +7°C° 0 mm 6 mps 729 mmHg 68%
    15:00 +7°C° 0 mm 6 mps 729 mmHg 65%
    16:00 +6°C° 0 mm 5 mps 729 mmHg 72%
    17:00 +4°C° 0 mm 4 mps 729 mmHg 78%
    18:00 +3°C° 0 mm 3 mps 729 mmHg 85%
    19:00 +1°C° 0 mm 4 mps 729 mmHg 87%
    20:00 +1°C° 0 mm 4 mps 729 mmHg 90%
    21:00 +1°C° 0 mm 4 mps 730 mmHg 93%
    22:00 +1°C° 0 mm 4 mps 730 mmHg 93%
    23:00 +1°C° 0 mm 4 mps 730 mmHg 94%

    Day after tomorrow, 19 February, Tuesday

    Time Temperature Precipitation Wind Pressure Humidity
    00:00 0°C° 0 mm 4 mps 730 mmHg 94%
    01:00 +1°C° 0 mm 3 mps 730 mmHg 94%
    02:00 +1°C° 0 mm 3 mps 731 mmHg 95%
    03:00 +1°C° 0 mm 3 mps 731 mmHg 95%
    04:00 0°C° 0 mm 3 mps 731 mmHg 95%
    05:00 0°C° 0 mm 3 mps 731 mmHg 95%
    06:00 0°C° 0 mm 3 mps 731 mmHg 95%
    07:00 +1°C° 0 mm 3 mps 731 mmHg 92%
    08:00 +2°C° 0 mm 3 mps 732 mmHg 88%
    09:00 +3°C° 0 mm 4 mps 732 mmHg 85%
    10:00 +4°C° 0.1 mm 4 mps 732 mmHg 82%
    11:00 +5°C° 0.1 mm 5 mps 732 mmHg 78%
    12:00 +5°C° 0.1 mm 5 mps 733 mmHg 74%
    13:00 +4°C° 0.4 mm 6 mps 732 mmHg 77%
    14:00 +4°C° 0.4 mm 6 mps 732 mmHg 81%
    15:00 +4°C° 0.4 mm 6 mps 732 mmHg 84%
    16:00 +4°C° 0.1 mm 6 mps 732 mmHg 85%
    17:00 +4°C° 0.1 mm 6 mps 732 mmHg 87%
    18:00 +3°C° 0.1 mm 6 mps 732 mmHg 89%
    19:00 +3°C° 0.3 mm 6 mps 732 mmHg 89%
    20:00 +3°C° 0.3 mm 6 mps 732 mmHg 90%
    21:00 +3°C° 0.3 mm 6 mps 732 mmHg 90%
    22:00 +3°C° 0.5 mm 6 mps 732 mmHg 90%
    23:00 +3°C° 0.5 mm 6 mps 732 mmHg 89%

    20 February, Wednesday

    Time Temperature Precipitation Wind Pressure Humidity
    00:00 +3°C° 0.5 mm 7 mps 732 mmHg 89%
    01:00 +3°C° 0.1 mm 6 mps 732 mmHg 89%
    02:00 +3°C° 0.1 mm 6 mps 731 mmHg 90%
    03:00 +3°C° 0.1 mm 6 mps 731 mmHg 90%
    04:00 +3°C° 0 mm 6 mps 731 mmHg 90%
    05:00 +3°C° 0 mm 6 mps 731 mmHg 90%
    06:00 +3°C° 0 mm 6 mps 731 mmHg 91%
    07:00 +3°C° 0.1 mm 6 mps 731 mmHg 90%
    08:00 +4°C° 0.1 mm 6 mps 732 mmHg 89%
    09:00 +4°C° 0.1 mm 6 mps 732 mmHg 88%
    10:00 +5°C° 0 mm 7 mps 732 mmHg 86%
    11:00 +5°C° 0 mm 7 mps 732 mmHg 84%
    12:00 +6°C° 0 mm 8 mps 733 mmHg 82%
    13:00 +6°C° 0 mm 8 mps 733 mmHg 83%
    14:00 +8°C° 0 mm 7 mps 732 mmHg 83%
    15:00 +8°C° 0 mm 7 mps 732 mmHg 84%
    16:00 +8°C° 0.1 mm 7 mps 733 mmHg 86%
    17:00 +7°C° 0.1 mm 6 mps 733 mmHg 88%
    18:00 +7°C° 0.1 mm 6 mps 733 mmHg 91%
    19:00 +7°C° 0 mm 6 mps 733 mmHg 91%
    20:00 +7°C° 0 mm 6 mps 734 mmHg 92%
    21:00 +7°C° 0 mm 6 mps 734 mmHg 92%
    22:00 +7°C° 0 mm 6 mps 734 mmHg 93%
    23:00 +7°C° 0 mm 5 mps 735 mmHg 93%

    21 February, Thursday

    Time Temperature Precipitation Wind Pressure Humidity
    00:00 +7°C° 0 mm 4 mps 735 mmHg 94%
    01:00 +7°C° 0.1 mm 4 mps 735 mmHg 94%
    02:00 +8°C° 0.1 mm 3 mps 735 mmHg 95%
    03:00 +8°C° 0.1 mm 3 mps 736 mmHg 95%
    04:00 +8°C° 0 mm 3 mps 736 mmHg 95%
    05:00 +8°C° 0 mm 3 mps 736 mmHg 95%
    06:00 +7°C° 0 mm 3 mps 736 mmHg 96%
    07:00 +8°C° 0 mm 3 mps 737 mmHg 95%
    08:00 +8°C° 0 mm 3 mps 737 mmHg 94%
    09:00 +8°C° 0 mm 3 mps 738 mmHg 93%
    10:00 +8°C° 0 mm 4 mps 738 mmHg 88%
    11:00 +8°C° 0 mm 4 mps 738 mmHg 84%
    12:00 +10°C° 0 mm 4 mps 739 mmHg 80%
    13:00 +11°C° 0 mm 4 mps 739 mmHg 79%
    14:00 +10°C° 0 mm 5 mps 739 mmHg 78%
    15:00 +12°C° 0 mm 5 mps 739 mmHg 77%
    16:00 +10°C° 0 mm 4 mps 739 mmHg 82%
    17:00 +8°C° 0 mm 4 mps 739 mmHg 87%
    18:00 +8°C° 0 mm 3 mps 739 mmHg 92%
    19:00 +7°C° 0 mm 3 mps 739 mmHg 93%
    20:00 +5°C° 0 mm 3 mps 739 mmHg 93%
    21:00 +5°C° 0 mm 3 mps 740 mmHg 94%
    22:00 +4°C° 0 mm 3 mps 740 mmHg 94%
    23:00 +4°C° 0 mm 3 mps 740 mmHg 94%

    22 February, Friday

    Time Temperature Precipitation Wind Pressure Humidity
    00:00 +4°C° 0 mm 3 mps 740 mmHg 94%
    01:00 +4°C° 0 mm 3 mps 740 mmHg 95%
    02:00 +4°C° 0 mm 3 mps 741 mmHg 96%
    03:00 +4°C° 0 mm 2 mps 741 mmHg 96%
    04:00 +4°C° 0 mm 3 mps 741 mmHg 96%
    05:00 +4°C° 0 mm 3 mps 741 mmHg 96%
    06:00 +4°C° 0 mm 3 mps 741 mmHg 96%
    07:00 +4°C° 0 mm 3 mps 741 mmHg 93%
    08:00 +5°C° 0 mm 3 mps 742 mmHg 91%
    09:00 +6°C° 0 mm 4 mps 742 mmHg 89%
    10:00 +7°C° 0 mm 4 mps 742 mmHg 84%
    11:00 +10°C° 0 mm 4 mps 742 mmHg 79%
    12:00 +10°C° 0 mm 5 mps 743 mmHg 74%
    13:00 +10°C° 0 mm 5 mps 743 mmHg 74%
    14:00 +12°C° 0 mm 5 mps 743 mmHg 73%
    15:00 +12°C° 0 mm 5 mps 742 mmHg 73%
    16:00 +11°C° 0 mm 4 mps 743 mmHg 79%
    17:00 +8°C° 0 mm 4 mps 743 mmHg 85%
    18:00 +8°C° 0 mm 3 mps 743 mmHg 91%
    19:00 +7°C° 0 mm 3 mps 743 mmHg 91%
    20:00 +5°C° 0 mm 3 mps 742 mmHg 92%
    21:00 +5°C° 0 mm 3 mps 742 mmHg 92%
    22:00 +4°C° 0 mm 3 mps 742 mmHg 93%
    23:00 +4°C° 0 mm 4 mps 742 mmHg 94%
    Show more